Location: Bl�riot-Plage
(50.9575°N, 1.8224°E)
Time: 12:39:33
(UTC+00:00)

Daily predictions for brighter satellites

Satellite Brightness Start Highest point End
(mag) Time Altitude Azimuth Time Altitude Azimuth Time Altitude Azimuth
Cosmos 1992 Rocket 4.3 16:18:11 10° NNW 16:23:25 74° WSW 16:28:38 10° SSE
RESURS DK-1 3.0 16:20:12 10° SW 16:24:15 52° NW 16:28:19 10° NNE
Helios 1A Rocket 2.9 16:20:28 10° SSE 16:24:34 77° ENE 16:28:39 10° NNW
Cosmos 2237 Rocket 2.4 16:19:32 10° SSW 16:25:08 62° ESE 16:30:45 10° NE
Cosmos 2251 Rocket 3.6 16:20:11 10° SSW 16:25:28 74° ESE 16:30:44 10° NNE
Cosmos 1943 Rocket 3.0 16:20:47 10° NNW 16:25:42 29° NE 16:30:32 10° ESE
COSMOS 2455 4.4 16:22:03 10° WNW 16:26:53 24° NNW 16:31:44 10° NNE
Cosmos 1500 3.2 16:24:25 10° N 16:28:12 89° WSW 16:31:56 10° S
Cosmos 1536 2.9 16:24:37 10° N 16:28:36 59° ENE 16:32:32 10° SSE
Cosmos 2322 Rocket 4.1 16:24:57 10° W 16:28:59 20° NNW 16:33:02 10° NNE
Cosmos 2219 Rocket 2.7 16:24:37 10° SW 16:30:10 58° NW 16:35:47 10° NNE
STARLINK-67 2.6 16:27:29 10° WNW 16:30:14 59° N 16:32:58 10° E
Cosmos 2344 4.5 16:22:36 10° NW 16:30:46 45° NNE 16:41:33 10° E
Cosmos 1812 2.7 16:28:00 10° S 16:31:50 67° E 16:35:41 10° NNE
Cosmos 1689 Rocket 2.1 16:29:06 10° NNE 16:32:08 65° ESE 16:35:07 10° S
Feng Yun 1-1 Rocket 4.4 16:27:23 10° SE 16:32:31 47° ENE 16:37:44 10° N
Cosmos 1782 Rocket 4.3 16:29:14 10° N 16:33:04 29° ENE 16:36:52 10° SE
Lacrosse 5 rocket 1.7 16:31:21 10° WSW 16:35:36 58° NNW 16:39:36 10° ENE
Cosmos 2333 Rocket 2.9 16:30:46 10° SW 16:36:23 53° NW 16:42:04 10° NNE
Meteor 2-6 Rocket 4.4 16:31:04 10° SSW 16:36:27 73° WNW 16:41:58 10° N
FALCON 9 DEB 3.6 16:33:05 10° SW 16:36:31 54° SSE 16:39:55 10° ENE
STARLINK-46 2.8 16:36:25 10° W 16:39:03 52° N 16:41:28 12° ENE
SL-4 R/B 1.8 16:35:46 10° W 16:39:27 79° N 16:43:27 10° E
SL-16 R/B 4.3 16:37:44 10° WNW 16:41:15 16° NNW 16:44:47 10° N
Radarsat Rocket 4.1 16:36:56 10° SSE 16:42:53 80° WSW 16:48:46 10° NNW
Cosmos 1862 Rocket 3.5 16:38:38 10° S 16:43:00 81° E 16:47:28 10° NNE
Cosmos 1703 Rocket 4.2 16:43:02 10° SSE 16:47:07 36° E 16:51:14 10° NNE
SeaSat 1 4.5 16:47:57 10° NNE 16:48:33 10° NNE 16:49:09 10° NNE
Cosmos 405 Rocket 4.2 16:47:44 10° NNE 16:50:01 15° ENE 16:52:18 10° E
Okean 2 Rocket 4.2 16:46:57 10° NNE 16:50:32 23° ENE 16:54:06 10° ESE
ATLAS 2AS CENTAUR R/B 3.8 16:47:04 10° W 16:54:37 42° NNW 17:01:46 11° NE
Aureole 1 Rocket 2.5 16:51:53 10° S 16:54:53 52° ESE 16:58:13 11° NNE
STARLINK-60 3.0 16:52:27 10° WSW 16:55:51 83° SSE 16:58:26 16° ENE
BREEZE-M R/B 3.3 16:49:19 10° W 16:55:59 74° S 16:59:20 10° ESE
NOAA 12 4.3 16:51:52 10° SE 16:56:55 48° ENE 17:01:59 10° N
Cosmos 1980 3.8 16:51:50 10° SW 16:57:30 78° WNW 17:03:12 10° NNE
Sich 1 Rocket 4.0 16:53:31 10° N 16:57:39 38° ENE 17:01:45 10° SE
Cosmos 1441 Rocket 3.1 16:57:14 10° N 17:01:02 68° ENE 17:04:46 10° SSE
H-2A R/B 2.5 17:02:34 10° SSE 17:06:15 72° ENE 17:09:57 10° N
SMAP 3.0 17:03:06 10° SSE 17:07:46 83° ENE 17:12:28 10° NNW
Cosmos 2297 3.9 17:02:24 10° NNW 17:08:07 76° WSW 17:13:45 10° SSE
COBE Rocket 3.9 17:04:39 10° NNE 17:09:15 56° E 17:13:55 10° S
Okean O Rocket 3.3 17:07:00 10° SSW 17:11:01 36° W 17:15:04 10° NNW
STARLINK-52 3.2 17:07:47 10° WSW 17:11:16 72° SSE 17:13:24 22° ENE
Cosmos 1666 3.0 17:08:12 10° NNW 17:11:56 68° W 17:15:38 10° S
Okean 1-7 3.2 17:07:59 10° S 17:12:13 52° E 17:16:30 10° NNE
Cosmos 1867 3.7 17:07:58 10° NW 17:13:28 84° SW 17:18:55 10° SE
CZ-4 R/B 2.1 17:11:52 10° ESE 17:15:09 27° ENE 17:18:26 10° N
USA 215 3.4 17:10:07 16° ENE 17:15:30 62° SE 17:21:58 10° SW
Cosmos 1908 Rocket 3.9 17:11:22 10° NNW 17:15:45 68° W 17:20:03 10° S
BREEZE-M DEB (TANK) 3.5 17:10:58 10° W 17:15:59 40° SSW 17:18:31 12° ESE
YAOGAN 6 3.2 17:15:09 10° SE 17:18:25 34° ENE 17:21:43 10° N
Abrixas rocket 4.1 17:16:41 10° S 17:18:37 16° SSE 17:19:38 14° SE
STARLINK-29 3.1 17:15:51 10° WSW 17:19:24 84° SSE 17:21:14 26° ENE
Cosmos 2242 Rocket 3.9 17:15:26 10° SSW 17:20:00 71° W 17:24:37 10° N
Exosat Rocket 4.1 17:15:26 10° SW 17:20:22 55° WNW 17:25:35 10° NNE
Cosmos 614 Rocket 3.9 17:17:23 10° S 17:22:24 63° ESE 17:26:38 15° NNE
Cosmos 1300 Rocket 4.2 17:18:42 10° N 17:22:33 30° ENE 17:26:23 10° SE
Cosmos 1975 3.0 17:19:22 10° N 17:23:15 45° ENE 17:27:06 10° SSE
Cosmos 1092 Rocket 4.0 17:17:31 10° S 17:23:49 86° E 17:30:06 10° N
IRS-1C Rocket 4.5 17:18:47 10° S 17:24:01 69° WSW 17:29:18 10° NNW
Cosmos 1190 Rocket 4.1 17:20:03 10° S 17:25:06 56° ESE 17:29:07 16° NE
COSMO-SKYMED 1 3.4 17:23:32 22° ENE 17:25:15 29° E 17:29:03 10° SSE
CZ-4B R/B 4.2 17:26:55 10° NNW 17:29:19 17° WNW 17:31:40 10° WSW
COSMOS 2428 4.3 17:24:58 10° W 17:29:51 28° NW 17:34:46 10° NNE
YAOGAN 1 3.1 17:26:48 10° SE 17:30:41 34° ENE 17:34:38 10° N
YAOGAN 3 4.5 17:27:03 10° SSE 17:31:24 81° ENE 17:35:47 10° NNW
Cosmos 1655 Rocket 4.4 17:25:51 10° SSE 17:31:34 39° E 17:37:17 10° NNE
Meteor 2-9 Rocket 4.3 17:27:43 10° N 17:33:32 58° ENE 17:39:12 10° SSE
Cosmos 1954 Rocket 4.4 17:28:46 10° S 17:33:33 39° ESE 17:36:01 24° NE
Cosmos 921 Rocket 4.0 17:30:15 10° NNW 17:34:24 49° WSW 17:38:36 10° S
Lacrosse 4 Rocket 2.9 17:33:30 10° NNW 17:36:09 19° NNE 17:36:09 19° NNE
Okean-O 2.6 17:33:49 10° SSE 17:38:15 88° WSW 17:42:43 10° NNW
Okean 3 4.1 17:34:31 10° SSE 17:38:16 32° E 17:38:35 32° E
Cosmos 1174 3.9 17:34:14 10° SW 17:38:56 83° NW 17:40:53 29° NE
Cosmos 1943 4.2 17:38:12 10° SSE 17:42:40 24° ESE 17:42:49 24° E
Cosmos 2360 Rocket 4.4 17:40:52 10° WNW 17:43:51 14° NNW 17:46:51 10° N
Cosmos 1656 Rocket 4.1 17:39:06 10° NNW 17:44:10 38° NE 17:46:04 29° E
Cosmos 1140 Rocket 3.4 17:46:02 10° SSW 17:51:08 73° ESE 17:54:13 25° NNE
USA 267 3.7 17:45:05 10° SE 17:51:33 62° SW 17:58:03 10° WNW
Cosmos 2369 Rocket 2.1 17:45:55 10° NNW 17:51:35 78° ENE 17:57:15 10° SSE
NOSS 3-1 (C) 3.9 17:44:42 10° NW 17:51:58 76° NE 18:00:24 10° SE
Cosmos 1743 3.4 17:48:53 10° NNW 17:52:41 56° W 17:56:30 10° S
Cosmos 1428 Rocket 4.5 17:49:12 10° S 17:55:25 88° WNW 18:01:44 10° N
S3M 3.8 17:50:03 10° N 17:56:16 71° ENE 18:02:23 10° SSE
STARLINK-43 3.5 17:52:42 10° SW 17:56:21 55° SSE 17:56:47 51° ESE
Envisat 3.3 17:53:38 10° S 17:58:41 67° WSW 18:03:46 10° NNW
Cosmos 1023 Rocket 4.3 17:54:28 10° SSW 17:59:34 86° ESE 18:02:34 26° NNE
Cosmos 2266 Rocket 4.3 17:55:56 10° SSE 18:01:56 44° E 18:05:44 22° NNE
Cosmos 468 Rocket 4.0 17:57:12 10° NNW 18:02:19 56° ENE 18:04:48 29° SE
SL-16 R/B 2.4 17:56:39 10° SW 18:02:20 69° WNW 18:06:14 21° NNE
Cosmos 2151 Rocket 3.4 17:58:09 10° N 18:02:34 66° ENE 18:06:55 10° SSE
Meteor 1-18 Rocket 4.2 17:57:34 10° SSW 18:03:15 87° WNW 18:08:53 10° NNE
USA 229 DEB 3.8 17:56:15 10° NW 18:03:29 85° NE 18:10:45 11° SE
USA 229 3.8 17:56:22 10° NW 18:03:34 85° NE 18:10:44 12° SE
STARLINK-67 3.7 18:01:52 10° WNW 18:04:16 41° SW 18:04:16 41° SW
IRIDIUM 103 4.4 18:00:18 10° SSE 18:05:19 49° E 18:07:13 33° NE
Cosmos 1553 Rocket 4.1 17:59:54 10° NNW 18:06:18 80° W 18:12:43 10° S
Cosmos 407 Rocket 3.9 18:03:18 10° SW 18:08:30 62° WNW 18:12:09 20° NNE
NOSS 3-1 (A) 3.9 18:01:44 10° NW 18:08:57 70° NE 18:14:13 25° ESE
Cosmos 2237 Rocket 3.7 18:04:33 10° WSW 18:09:36 32° NW 18:13:53 14° NNE
Cosmos 1603 3.9 18:04:18 10° S 18:09:47 49° ESE 18:10:51 44° ENE
Cosmos 1943 Rocket 2.4 18:04:20 10° NNW 18:09:57 69° WSW 18:15:29 10° SSE
SKYMED 2 3.4 18:12:12 44° NNE 18:13:34 83° ESE 18:17:55 10° SSW
FALCON 9 DEB 3.5 18:10:08 10° W 18:13:16 58° NW 18:13:16 58° NW
Lacrosse 5 rocket 2.3 18:11:30 10° WNW 18:15:14 34° N 18:15:14 34° N
Cosmos 2219 Rocket 4.3 18:11:40 10° WNW 18:15:24 18° NNW 18:19:06 10° N
SL-4 R/B 2.1 18:15:16 10° WNW 18:19:06 64° SSW 18:19:21 62° S
STARLINK-80 4.1 18:17:04 10° SW 18:20:09 46° S 18:20:09 46° S
Cosmos 2333 Rocket 4.4 18:18:19 10° WNW 18:22:03 17° NNW 18:25:33 11° N
CZ-4C R/B 2.5 18:18:06 10° SSW 18:22:34 43° SE 18:22:34 43° SE
IRIDIUM 106 4.2 18:18:23 10° S 18:23:34 69° E 18:25:24 40° NNE
SeaSat 1 4.0 18:26:43 22° N 18:26:43 22° N 18:28:57 10° NNW
Cosmos 405 Rocket 3.3 18:22:44 10° NNW 18:26:21 53° W 18:29:59 10° S
Lacrosse 5 2.3 18:22:55 10° SSW 18:27:22 44° SSE 18:27:22 44° SSE
CSL-04 Rocket 3.7 18:22:59 10° SSE 18:28:16 79° WSW 18:33:39 10° NNW
Cosmos 2208 Rocket 4.3 18:23:26 10° NNW 18:28:09 51° NNE 18:28:09 51° NNE
Okean 2 Rocket 4.0 18:24:33 10° NNW 18:28:53 48° W 18:33:13 10° SSW
USA 116 4.2 18:30:02 55° NNE 18:31:10 80° ESE 18:36:07 10° S
Meteor 2-4 Rocket 3.6 18:28:58 10° S 18:34:49 85° ESE 18:37:10 38° NNE
Cosmos 2221 Rocket 4.3 18:33:38 10° SSW 18:37:58 52° WNW 18:39:45 32° NNW
Ariane Rocket 3.9 18:43:51 36° N 18:43:51 36° N 18:46:49 10° NNW
Cosmos 1570 Rocket 4.0 18:36:33 10° NNW 18:41:08 64° N 18:41:08 64° N
Cosmos 883 Rocket 4.4 18:36:36 10° N 18:42:58 89° W 18:49:15 10° S
Gbstr 26 Del rocket 4.3 18:38:36 10° SW 18:45:06 48° SSE 18:45:06 48° SSE
Cosmos 192 4.5 18:40:20 10° NNW 18:44:37 66° NNW 18:44:37 66° NNW
Cosmos 2315 Rocket 3.8 18:39:01 10° N 18:45:24 80° E 18:51:40 10° SSE
Cosmos 2344 4.3 18:37:10 10° NW 18:46:34 88° SW 18:58:08 14° SE
ATLAS 2AS CENTAUR R/B 3.9 18:40:36 10° WNW 18:47:39 32° N 18:49:12 30° NNE
Cosmos 1763 Rocket 3.4 18:42:52 10° NNW 18:47:49 81° WNW 18:47:49 81° WNW
Meteor 2-8 Rocket 4.3 18:43:15 10° N 18:49:21 89° W 18:55:26 10° S
CZ-4 R/B 3.1 18:46:40 10° SSW 18:50:08 31° W 18:53:36 10° NNW
USA 215 3.3 18:57:28 57° NNE 18:58:37 67° NNW 19:05:05 10° W
COSMO-SKYMED 1 4.0 19:00:45 33° NW 19:01:28 36° WNW 19:05:26 10° SW
YAOGAN 1 4.3 19:02:58 10° SSW 19:06:49 31° W 19:10:42 10° NNW
Lacrosse 4 Rocket 3.9 19:11:38 10° NW 19:12:29 16° NW 19:12:29 16° NW
Cosmos 1943 4.0 19:20:37 10° SW 19:24:41 47° WSW 19:24:41 47° WSW
Cosmos 2369 Rocket 4.5 19:30:56 10° NW 19:35:00 21° W 19:39:03 10° SSW
SL-16 R/B 4.3 19:43:26 10° W 19:47:32 20° NW 19:48:07 20° NNW
Lacrosse 5 4.5 20:05:37 10° WSW 20:06:35 16° WSW 20:06:35 16° WSW
CZ-4C R/B 4.3 20:06:08 10° WSW 20:07:47 21° WSW 20:07:47 21° WSW
ATLAS 2AS CENTAUR R/B 4.4 20:32:52 10° NW 20:36:38 28° NNW 20:36:38 28° NNW
